Voltar ao catálogo

STARLINK-37090

AtivoComunicaçõesVLEO
NORAD 68193·PAYLOAD·🇺🇸 United States

Lançado Mar 14, 2026 de Vandenberg Space Force Base

Loading…

Próximas Passagens (próximas 24 horas)

TLE

AtualizadoSource: CelesTrak SupGP

Época: Sep 15, 2026, 02:59 UTC

1 68193C 26050AC  26258.12479167  .00000457  00000+0  13488-4 0  2581
2 68193  53.1558 102.9588 0001231  85.4934 185.5879 15.34393804    13

Acompanhe STARLINK-37090 em tempo real com AllMySat

Download on the App Store